Location: ???
(35.5616°N, 139.7977°E)
Time: 18:57:32
(UTC+00:00)

Cosmos 371 Rocket - Pass Details

Date: 17 November 2025
Orbit: 674 x 690 km, 74.0° (Epoch: 08 December)

Event Time Altitude Azimuth Distance (km) Brightness Sun altitude
Exits shadow 20:14:14 18° 306° (NW) 1,689 4.7 -13.3°
Maximum altitude 20:16:51 28° 260° (W) 1,282 4.2 -12.8°
Drops below altitude 10° 20:20:55 10° 202° (SSW) 2,129 5.7 -12.0°
Sets 20:23:28 0° 191° (S) 3,038 6.7 -11.5°
